Location: St. Louis
(38.6270°N, 90.1994°W)
Time: 04:04:04
(UTC-05:00)

ISS - Pass Details

Date: 06 April 2014
Orbit: 402 x 406 km, 51.6° (Epoch: 29 August)

Event Time Altitude Azimuth Distance (km) Brightness Sun altitude
Rises 20:25:31 0° 240° (WSW) 2,382 1.2 -11.5°
Reaches altitude 10° 20:27:38 10° 245° (WSW) 1,523 0.3 -11.9°
Maximum altitude 20:31:00 55° 324° (NW) 526 -2.5 -12.5°
Drops below altitude 10° 20:34:25 10° 44° (NE) 1,538 -0.6 -13.2°
Enters shadow 20:35:32 - 47° (NE) 1,988 -0.1 -13.4°
